Home > Weather > San Angelo > Past weeks

Flag for USA Weather for the Past 2 Weeks in San Angelo, Texas, USA

Now
73 °F

Sunny.


Feels Like: 77 °F
Forecast: 51 / 88 °F
Wind: 12 mph from South

Location: Mathis Field

Current Time: May 6, 2016 at 10:32:59 AM

Latest Report: May 6, 2016 at 9:51 AM


Visibility: 10 mi

Pressure: 30.04 "Hg (28.16 "Hg at 561m altitude)

Humidity: 46%

Dew Point: 51 °F

Location of San AngeloLocation

Historic Weather in San Angelo — Graph

°F

San Angelo Temperature Yesterday

Maximum temperature yesterday: 87 °F (at 2:51 PM)
Minimum temperature yesterday: 45 °F (at 6:51 AM)
Average temperature yesterday: 68 °F

High & Low Weather Summary for the Past Weeks

 TemperatureHumidityPressure
High89 °F (Apr 25, 4:51 PM)96% (Apr 22, 6:51 AM)30.26 "Hg (Apr 22, 6:51 AM)
Low41 °F (May 3, 6:51 AM)18% (Apr 27, 5:51 PM)29.44 "Hg (Apr 26, 5:51 PM)
Average68 °F60%29.88 "Hg
* Reported Apr 21 8:51 AM — May 6 8:51 AM, San Angelo, Weather by CustomWeather, © 2016

Note: Actual official high and low records may vary slightly from our data, if they occured in-between our weather recording intervals... More about our weather records

Advertising

San Angelo Weather History for the Previous 24 Hours

Scroll right to see more
 ConditionsComfort  
Time TempWeatherWind HumidityBarometerVisibility
8:51 AM
Fri, May 6
66 °FSunny.8 mph54%30.05 "Hg10 mi
7:51 AM57 °FSunny.3 mph72%30.02 "Hg10 mi
6:51 AM56 °FClear.No wind72%29.99 "Hg10 mi
5:51 AM54 °FClear.No wind77%29.98 "Hg10 mi
4:51 AM57 °FClear.3 mph72%29.98 "Hg10 mi
3:51 AM59 °FClear.6 mph67%29.98 "Hg10 mi
2:51 AM58 °FClear.8 mph70%29.99 "Hg10 mi
1:51 AM61 °FClear.8 mph62%29.99 "Hg10 mi
12:51 AM65 °FClear.8 mph54%30.01 "Hg10 mi
11:51 PM
Thu, May 5
63 °FClear.6 mph60%30.01 "Hg10 mi
10:51 PM63 °FClear.5 mph63%30.01 "Hg10 mi
9:51 PM67 °FClear.6 mph49%30.00 "Hg10 mi
8:51 PM71 °FSunny.7 mph44%29.99 "Hg10 mi
7:51 PM78 °FSunny.6 mph36%29.97 "Hg10 mi
6:51 PM83 °FSunny.9 mph26%29.96 "Hg10 mi
5:51 PM85 °FSunny.10 mph22%29.96 "Hg10 mi
4:51 PM86 °FSunny.No wind20%29.97 "Hg10 mi
3:51 PM87 °FSunny.10 mph21%29.99 "Hg10 mi
2:51 PM87 °FSunny.5 mph19%30.01 "Hg10 mi
1:51 PM86 °FSunny.No wind19%30.04 "Hg10 mi
12:51 PM85 °FSunny.12 mph21%30.06 "Hg10 mi
11:51 AM83 °FSunny.9 mph21%30.08 "Hg10 mi
10:51 AM79 °FSunny.3 mph32%30.09 "Hg10 mi
Weather by CustomWeather, © 2016

See weather overviewHow to use our weather pages